Location: Astronomy Club of Akron Observatory
(40.9700°N, 81.5606°W)
Time: 06:53:53
(UTC-04:00)

N. Korean satellite - Pass Details

Date: 19 February 2019
Orbit: 456 x 510 km, 97.2° (Epoch: 22 March)

Event Time Altitude Azimuth Distance (km) Brightness Sun altitude
Rises 18:25:57 0° 190° (S) 2,593 10.6 -4.6°
Reaches altitude 10° 18:28:14 10° 202° (SSW) 1,708 9.8 -5.1°
Maximum altitude 18:31:28 29° 264° (W) 946 9.1 -5.7°
Drops below altitude 10° 18:34:41 10° 325° (NW) 1,697 9.7 -6.3°
Sets 18:36:57 0° 337° (NNW) 2,574 10.4 -6.7°
